Location: Bílinka
(49.3579°N, 14.3767°E)
Time: 10:32:29
(UTC+00:00)

COBE Rocket - Visible Passes

Search period start: 28 September 2023 00:00
Search period end: 08 October 2023 00:00
Orbit: 677 x 780 km, 97.1° (Epoch: 27 September)

Date Brightness Start Highest point End Pass type
(mag) Time Alt. Az. Time Alt. Az. Time Alt. Az.
28 Sep 5.1 02:32:28 10° NNE 02:36:57 39° E 02:41:31 10° SSE visible
28 Sep 4.7 04:11:09 10° N 04:15:15 30° WNW 04:19:26 10° SW visible
29 Sep 6.5 01:46:14 10° NE 01:49:08 16° E 01:52:06 10° SE visible
29 Sep 3.8 03:23:19 10° N 03:28:04 73° WNW 03:32:56 10° SSW visible
30 Sep 4.9 02:36:02 10° NNE 02:40:37 43° E 02:45:17 10° S visible
30 Sep 4.8 04:14:51 10° N 04:18:51 27° WNW 04:22:57 10° WSW visible
01 Oct 6.4 01:49:37 10° NE 01:52:51 18° E 01:56:06 10° SE visible
01 Oct 3.8 03:26:57 10° N 03:31:43 67° WNW 03:36:34 10° SSW visible
02 Oct 4.7 02:39:36 10° NNE 02:44:16 48° E 02:49:02 10° S visible
02 Oct 4.9 04:18:33 10° N 04:22:27 25° WNW 04:26:26 10° WSW visible
03 Oct 6.3 01:53:02 10° NE 01:56:32 20° E 02:00:04 10° SE visible
03 Oct 3.9 03:30:35 10° N 03:35:20 61° WNW 03:40:11 10° SSW visible
04 Oct 4.6 02:43:10 10° NNE 02:47:55 53° E 02:52:46 10° S visible
04 Oct 5.0 04:22:14 10° NNW 04:26:02 24° WNW 04:29:54 10° WSW visible
05 Oct 6.1 01:56:29 10° NE 02:00:13 22° E 02:04:00 10° SE visible
05 Oct 4.0 03:34:12 10° N 03:38:56 55° WNW 03:43:47 10° SSW visible
06 Oct 4.4 02:46:44 10° NNE 02:51:33 59° E 02:56:11 12° S visible
06 Oct 5.1 04:25:55 10° NNW 04:29:37 22° WNW 04:33:21 10° WSW visible
07 Oct 6.0 01:59:56 10° NE 02:03:53 24° E 02:07:53 10° SE visible
07 Oct 4.1 03:37:50 10° N 03:42:33 51° WNW 03:47:21 10° SW visible
